TimeMST,TemperatureF,Dew PointF,Humidity,Sea Level PressureIn,VisibilityMPH,Wind Direction,Wind SpeedMPH,Gust SpeedMPH,PrecipitationIn,Events,Conditions,WindDirDegrees,DateUTC
12:15 AM,19.0,16.5,90,30.40,10.0,WNW,3.5,-,N/A,,Clear,300,2013-11-26 07:15:00
12:35 AM,18.1,15.6,90,30.41,10.0,Calm,Calm,-,N/A,,Clear,0,2013-11-26 07:35:00
12:55 AM,17.2,14.7,90,30.41,10.0,Calm,Calm,-,N/A,,Clear,0,2013-11-26 07:55:00
1:15 AM,17.4,14.4,88,30.42,10.0,Calm,Calm,-,N/A,,Clear,0,2013-11-26 08:15:00
1:35 AM,14.4,11.7,89,30.42,10.0,WSW,3.5,-,N/A,,Clear,250,2013-11-26 08:35:00
1:55 AM,17.1,14.0,88,30.42,10.0,NNW,3.5,-,N/A,,Clear,330,2013-11-26 08:55:00
2:15 AM,15.3,12.6,89,30.42,10.0,NW,3.5,-,N/A,,Clear,310,2013-11-26 09:15:00
2:35 AM,16.3,13.6,89,30.42,10.0,Calm,Calm,-,N/A,,Clear,0,2013-11-26 09:35:00
2:55 AM,16.3,13.5,88,30.42,10.0,NW,3.5,-,N/A,,Clear,320,2013-11-26 09:55:00
3:15 AM,14.5,11.8,89,30.42,10.0,West,4.6,-,N/A,,Clear,280,2013-11-26 10:15:00
3:35 AM,12.9,10.4,90,30.42,10.0,WNW,5.8,-,N/A,,Clear,300,2013-11-26 10:35:00
3:55 AM,14.9,12.2,89,30.43,10.0,Calm,Calm,-,N/A,,Clear,0,2013-11-26 10:55:00
4:15 AM,13.3,10.6,89,30.42,10.0,Calm,Calm,-,N/A,,Clear,0,2013-11-26 11:15:00
4:35 AM,12.6,10.4,91,30.43,10.0,NW,3.5,-,N/A,,Clear,310,2013-11-26 11:35:00
4:55 AM,13.3,10.6,89,30.44,10.0,Calm,Calm,-,N/A,,Clear,0,2013-11-26 11:55:00
5:15 AM,14.0,11.5,90,30.44,10.0,Calm,Calm,-,N/A,,Clear,0,2013-11-26 12:15:00
5:35 AM,13.3,10.6,89,30.45,10.0,SW,4.6,-,N/A,,Clear,230,2013-11-26 12:35:00
5:55 AM,11.8,8.6,87,30.45,10.0,NNW,3.5,-,N/A,,Clear,340,2013-11-26 12:55:00
6:15 AM,11.3,9.0,90,30.45,10.0,Calm,Calm,-,N/A,,Clear,0,2013-11-26 13:15:00
6:35 AM,13.1,10.4,89,30.46,10.0,Calm,Calm,-,N/A,,Clear,0,2013-11-26 13:35:00
6:55 AM,11.7,9.3,90,30.46,10.0,WNW,4.6,-,N/A,,Clear,290,2013-11-26 13:55:00
7:15 AM,10.4,7.9,90,30.47,10.0,Calm,Calm,-,N/A,,Clear,0,2013-11-26 14:15:00
7:35 AM,12.0,9.5,90,30.47,10.0,West,3.5,-,N/A,,Clear,270,2013-11-26 14:35:00
7:55 AM,13.3,10.4,88,30.47,10.0,Calm,Calm,-,N/A,,Clear,0,2013-11-26 14:55:00
8:15 AM,14.4,11.1,87,30.48,10.0,Calm,Calm,-,N/A,,Clear,0,2013-11-26 15:15:00
8:35 AM,16.0,12.4,86,30.48,10.0,Calm,Calm,-,N/A,,Clear,0,2013-11-26 15:35:00
8:55 AM,17.8,13.5,83,30.48,10.0,Calm,Calm,-,N/A,,Clear,0,2013-11-26 15:55:00
9:15 AM,19.9,14.4,79,30.49,10.0,Calm,Calm,-,N/A,,Clear,0,2013-11-26 16:15:00
9:35 AM,20.5,15.3,80,30.49,10.0,Calm,Calm,-,N/A,,Clear,0,2013-11-26 16:35:00
9:55 AM,21.2,15.1,77,30.49,10.0,Calm,Calm,-,N/A,,Clear,0,2013-11-26 16:55:00
10:15 AM,23.0,16.3,76,30.49,10.0,South,3.5,-,N/A,,Clear,170,2013-11-26 17:15:00
10:35 AM,27.1,18.5,70,30.49,10.0,Calm,Calm,-,N/A,,Clear,0,2013-11-26 17:35:00
10:55 AM,28.0,19.2,70,30.48,10.0,Calm,Calm,-,N/A,,Clear,0,2013-11-26 17:55:00
11:15 AM,27.1,19.2,72,30.47,10.0,Calm,Calm,-,N/A,,Clear,0,2013-11-26 18:15:00
11:35 AM,27.9,19.2,70,30.46,10.0,Calm,Calm,-,N/A,,Clear,0,2013-11-26 18:35:00
11:55 AM,29.8,20.7,69,30.45,10.0,Calm,Calm,-,N/A,,Clear,0,2013-11-26 18:55:00
12:15 PM,29.5,19.4,66,30.45,10.0,Calm,Calm,-,N/A,,Clear,0,2013-11-26 19:15:00
12:35 PM,32.9,20.1,59,30.43,10.0,Calm,Calm,-,N/A,,Clear,0,2013-11-26 19:35:00
12:55 PM,32.5,21.4,64,30.42,10.0,Calm,Calm,-,N/A,,Clear,0,2013-11-26 19:55:00
1:15 PM,35.6,22.8,60,30.42,10.0,ESE,4.6,-,N/A,,Clear,110,2013-11-26 20:15:00
1:35 PM,35.6,21.9,58,30.41,10.0,Calm,Calm,-,N/A,,Clear,0,2013-11-26 20:35:00
2:15 PM,37.4,21.7,53,30.40,10.0,Calm,Calm,-,N/A,,Clear,0,2013-11-26 21:15:00
2:35 PM,37.4,21.9,54,30.40,10.0,Calm,Calm,-,N/A,,Clear,0,2013-11-26 21:35:00
2:55 PM,37.8,23.0,55,30.40,10.0,Calm,Calm,-,N/A,,Clear,0,2013-11-26 21:55:00
3:15 PM,36.7,23.2,58,30.41,10.0,Calm,Calm,-,N/A,,Clear,0,2013-11-26 22:15:00
3:35 PM,36.5,23.7,60,30.41,10.0,SW,4.6,-,N/A,,Clear,230,2013-11-26 22:35:00
3:55 PM,33.3,23.0,66,30.41,10.0,SW,6.9,-,N/A,,Clear,230,2013-11-26 22:55:00
4:15 PM,32.0,21.7,66,30.41,10.0,WSW,9.2,-,N/A,,Clear,250,2013-11-26 23:15:00
4:35 PM,30.7,21.6,69,30.40,10.0,SW,4.6,-,N/A,,Clear,230,2013-11-26 23:35:00
4:55 PM,29.8,20.3,68,30.40,10.0,WSW,8.1,-,N/A,,Clear,240,2013-11-26 23:55:00
5:15 PM,30.2,20.5,67,30.41,10.0,WSW,8.1,-,N/A,,Clear,250,2013-11-27 00:15:00
5:35 PM,28.4,19.9,71,30.41,10.0,WSW,5.8,-,N/A,,Clear,240,2013-11-27 00:35:00
5:55 PM,27.0,20.1,75,30.42,10.0,SW,3.5,-,N/A,,Clear,230,2013-11-27 00:55:00
6:15 PM,28.2,19.2,69,30.42,10.0,West,3.5,-,N/A,,Clear,260,2013-11-27 01:15:00
6:35 PM,26.1,18.7,74,30.43,10.0,Calm,Calm,-,N/A,,Clear,0,2013-11-27 01:35:00
6:55 PM,23.7,18.9,82,30.43,10.0,Calm,Calm,-,N/A,,Clear,0,2013-11-27 01:55:00
7:15 PM,23.9,19.2,82,30.43,10.0,WSW,5.8,-,N/A,,Clear,250,2013-11-27 02:15:00
7:35 PM,22.6,17.2,80,30.44,10.0,Calm,Calm,-,N/A,,Clear,0,2013-11-27 02:35:00
7:55 PM,22.1,17.4,82,30.44,10.0,Calm,Calm,-,N/A,,Clear,0,2013-11-27 02:55:00
8:15 PM,20.8,18.1,89,30.44,10.0,Calm,Calm,-,N/A,,Clear,0,2013-11-27 03:15:00
8:35 PM,21.9,17.4,83,30.44,10.0,WNW,4.6,-,N/A,,Clear,300,2013-11-27 03:35:00
8:55 PM,22.1,19.4,89,30.44,10.0,Calm,Calm,-,N/A,,Clear,0,2013-11-27 03:55:00
9:15 PM,21.0,18.5,90,30.44,10.0,Calm,Calm,-,N/A,,Clear,0,2013-11-27 04:15:00
9:35 PM,18.5,15.1,86,30.45,10.0,Calm,Calm,-,N/A,,Clear,0,2013-11-27 04:35:00
9:55 PM,18.9,14.7,84,30.45,10.0,Calm,Calm,-,N/A,,Clear,0,2013-11-27 04:55:00
10:15 PM,20.3,17.1,87,30.44,10.0,North,3.5,-,N/A,,Clear,350,2013-11-27 05:15:00
10:35 PM,19.6,16.3,87,30.44,10.0,Calm,Calm,-,N/A,,Clear,0,2013-11-27 05:35:00
10:55 PM,23.5,19.2,84,30.44,10.0,NNW,9.2,-,N/A,,Clear,330,2013-11-27 05:55:00
11:15 PM,23.9,19.0,82,30.44,10.0,NNW,8.1,-,N/A,,Clear,340,2013-11-27 06:15:00
11:35 PM,24.4,18.7,79,30.44,10.0,NNW,4.6,-,N/A,,Clear,330,2013-11-27 06:35:00
11:55 PM,21.0,16.3,82,30.44,10.0,North,6.9,-,N/A,,Clear,350,2013-11-27 06:55:00